Regional Weather Roundup
Issued by NWS Sioux Falls, SD

Home | Current Version | Previous Version | Graphics & Text | Print | Product List | Glossary Off
Versions: 1 2 3 4 5 6 7 8 9 10 11 12 13 14 15 16 17 18 19 20 21 22 23 24 25 26 27 28 29 30 31 32 33 34 35 36 37 38 39 40 41 42 43 44 45 46 47 48 49 50

000
ASUS43 KFSD 022310
RWRFSD

WEATHER ROUNDUP FOR SE SOUTH DAKOTA/SW MINNESOTA/NW IOWA
NATIONAL WEATHER SERVICE SIOUX FALLS SD
600 PM CDT WED SEP 02 2015

NOTE: "FAIR" INDICATES FEW OR NO CLOUDS BELOW 12,000 FEET WITH NO
SIGNIFICANT WEATHER AND OR OBSTRUCTIONS TO VISIBILITY.


SDZ038>040-050-052>070-030000-
SOUTHEAST SOUTH DAKOTA

CITY           SKY/WX    TMP DP  RH WIND       PRES   REMARKS
BROOKINGS      PTSUNNY   84  73  70 SE10      29.83S
CHAMBERLAIN    SUNNY     92  74  54 SE3       29.72F HX 102
HURON          MOSUNNY   89  72  56 SE14      29.73S HX  96
MADISON        FAIR      82  79  89 SE10      29.81F
MITCHELL       SUNNY     91  75  59 SE12      29.74F HX 101
SIOUX FALLS    PTSUNNY   85  73  67 S13       29.81R
WINNER         FAIR     100  52  19 S10       29.74S HX  97
YANKTON        SUNNY     88  73  62 S9        29.77S HX  96
$$

MNZ071-072-080-081-089-090-097-098-030000-
SOUTHWEST MINNESOTA

CITY           SKY/WX    TMP DP  RH WIND       PRES   REMARKS
FAIRMONT       SUNNY     84  68  58 S7        29.85S
JACKSON        MOSUNNY   84  72  65 S7        29.86S
LUVERNE        PTSUNNY   86  72  62 S8        29.83S
MARSHALL       PTSUNNY   86  72  62 SE12      29.83F
MONTEVIDEO     MOSUNNY   84  75  74 SE10      29.83F
PIPESTONE      PTSUNNY   82  73  74 S7        29.84S
REDWOOD FALLS  MOSUNNY   83  74  74 E6        29.82S
TRACY          PTSUNNY   85  76  73 SE6       29.84S
WINDOM         MOSUNNY   84  72  65 CALM      29.85S
WORTHINGTON    MOSUNNY   81  72  74 S7        29.85S
$$

IAZ001>003-012>014-020>022-031-032-NEZ013-014-SDZ071-030000-
NORTHWEST IOWA

CITY           SKY/WX    TMP DP  RH WIND       PRES   REMARKS
CHEROKEE       SUNNY     84  74  70 S9        29.84S
DENISON        SUNNY     84  73  70 S9        29.83F
ESTHERVILLE    SUNNY     83  72  69 S10       29.85S
LE MARS        SUNNY     84  73  70 S15       29.82S
ORANGE CITY    SUNNY     82  73  74 S9        29.84R
SHELDON        SUNNY     82  73  74 SW12G17   29.83R
SIOUX CITY     SUNNY     86  65  49 S14       29.81F
SPENCER        SUNNY     85  71  63 S10       29.84F
STORM LAKE     SUNNY     82  73  74 S10       29.86F
$$

ABBREVIATIONS USED IN REMARKS
   TC - TEMPERATURE IN CELSIUS
  WCI - WIND CHILL INDEX
   HX - HEAT INDEX
  VSB - VISIBILITY




USA.gov is the U.S. government's official web portal to all federal, state and local government web resources and services.